Showing default

IRIDIUM 111, 41926

Orbit data source: Space-Track

IRIDIUM 111, 41926 is a payload satellite owned by Iridium (US) in LEO that was launched on Sat, 14 Jan 2017 UTC via an FALCON 9 launch vehicle from the Air Force Western Test Range (AFWTR). Payload-class satellites include a variety of spacecraft equipped with specific instruments for various scientific and technological missions. These include communications satellites like Starlink; space stations such as the ISS; scientific satellites like the Hubble; Earth observation satellites from companies like Planet Labs, Umbra, and HawkEye 360; GPS; miniature CubeSats for education and research; and military/defense satellites.

Loading next visibility...
Identifier
41926, 2017-003K
Orbit
LEO
Country
Flag of USUS
Related business
Manufacturer
OATK SSG Gilbert
Mission
Operational Commercial Communications
Bus & Motor
ELITEBUS, Unknown motor
Mass
860 kg wet, 700 kg dry
Launch date (UTC)
2017-01-14 (9 years ago)
Launch vehicle
FALCON 9
Launch site
Air Force Western Test Range (AFWTR)
Object type
Payload
Rocket body
Debris
Shape & HBR
Trap Box + 2 Pan, 4.8 m
Radar Cross Section
10.154 m², Large (>1 m²)

Expand to show TLE details & history
Last TLE update: 10 hours ago

TLE from 10 hours ago
0 IRIDIUM 111
1 41926U 17003K   25353.46692367  .00000032  00000-0  41998-5 0  9995
2 41926  86.3986 163.4703 0002014  94.0006 266.1420 14.34217872467494
Epoch: 2025-12-19T11:12Z
TLE epoch observation values (Epoch: 2025-12-19T11:12:22.205Z)
Latitude
-0°
Longitude
-92.92989°
Altitude
780.815 km
Speed
7.463 km/s
True Right ascension
10h 53m 52s
True Declination
0° 00' 00"
Sunlit
Object was in daylight at epoch
Visualization orbit readout
Latitude
Unknown
Longitude
Unknown
Altitude
Unknown
Speed
Unknown
Apparent Right ascension
Unknown
Apparent Declination
Unknown
Sunlit
N/A
Visualization observer readout
Local Sidereal Time
20:07:09
Azimuth
Unknown
Elevation
Unknown
Doppler factor
Unknown
Orbital elements
Apogee altitude
776.072 km
Perigee altitude
773.191 km
Semi-major axis
7,152.768 km
Eccentricity
0.0002
Inclination
86.3986°
RAAN
163.4703°
Arg. of periapsis
94.0006°
True anomaly
266.11897°
Mean anomaly
266.142°
Eccentric anomaly
266.13049°
Mean motion
3.58783 °/min
Orbital period
100.34 mins
BSTAR
0.0000041998
Loading maneuver chart data...
Computing Atmospheric mass density...
Loading historical data...
Loading historical data...
Loading historical data...
Loading historical data...
Loading historical data...
Loading historical data...
Loading historical data...

Documentation

Showing up to 5 results
|